Flag for New Zealand Weather past 2 weeks in Christchurch, New Zealand

Now
30 °F

Chilly.


Feels Like: 27 °F
Forecast: 32 / 52 °F
Wind: 3 mph from Northeast

Location: Christchurch Airport

Current Time: Aug 6, 2015 at 1:04:47 AM

Latest Report: Aug 6, 2015 at 12:30 AM


Visibility: N/A

Pressure: 29.71 "Hg

Humidity: 93%

Dew point: 28 °F

Location of ChristchurchLocation

Historic Weather in Christchurch — Graph

°F

Christchurch temperature yesterday

Maximum temperature yesterday: 54 °F (at 1:00 PM)
Minimum temperature yesterday: 30 °F (at 4:00 AM)
Average temperature yesterday: 41 °F

Past Weeks' High & Low Weather Summary

 TemperatureHumidityPressure
High70 °F (Aug 3, 12:30 PM)100% (Jul 23, 8:00 AM)30.60 "Hg (Jul 23, 8:00 AM)
Low25 °F (Jul 31, 5:00 AM)32% (Aug 2, 1:30 PM)29.42 "Hg (Jul 28, 4:30 AM)
Average46 °F75%29.99 "Hg
* Reported Midnight between Jul 21 and Jul 22 — Midnight between Aug 5 and Aug 6, Christchurch, Weather by CustomWeather, © 2015

Note: Actual official high and low records may vary slightly from our data, if they occured in-between our weather recording intervals... More about our weather records

Advertising

Christchurch weather history for previous 24 hours

 ConditionsComfort  
Time TempWeatherWind HumidityBarometerVisibility
12:00 AM
Thu, Aug 6
30 °FChilly.1 mph93%29.71 "HgN/A
11:30 PM
Wed, Aug 5
32 °FChilly.No wind93%29.74 "HgN/A
11:00 PM30 °FChilly.2 mph93%29.74 "HgN/A
10:30 PM36 °FFog.1 mph93%29.74 "Hg3 mi
10:00 PM34 °FChilly.1 mph93%29.77 "HgN/A
9:30 PM39 °FChilly.No wind93%29.77 "HgN/A
9:00 PM39 °FChilly.3 mph93%29.80 "HgN/A
8:30 PM41 °FQuite cool.8 mph93%29.77 "HgN/A
8:00 PM43 °FQuite cool.10 mph93%29.80 "HgN/A
7:30 PM45 °FQuite cool.12 mph87%29.80 "HgN/A
7:00 PM45 °FQuite cool.10 mph87%29.80 "HgN/A
6:30 PM45 °FQuite cool.13 mph81%29.83 "HgN/A
6:00 PM45 °FQuite cool.13 mph81%29.80 "HgN/A
5:30 PM46 °FCool.12 mph71%29.83 "HgN/A
5:00 PM48 °FCool.13 mph66%29.83 "HgN/A
4:30 PM50 °FCool.17 mph67%29.83 "HgN/A
4:00 PM52 °FCool.17 mph62%29.83 "HgN/A
3:30 PM52 °FCool.16 mph62%29.83 "HgN/A
3:00 PM52 °FCool.17 mph62%29.86 "HgN/A
2:30 PM52 °FCool.17 mph62%29.86 "HgN/A
2:00 PM54 °FCool.15 mph58%29.86 "HgN/A
1:30 PM54 °FCool.14 mph54%29.89 "HgN/A
1:00 PM54 °FCool.10 mph51%29.89 "HgN/A
12:30 PM52 °FCool.12 mph54%29.92 "HgN/A
12:00 PM50 °FCool.10 mph58%29.95 "HgN/A
11:30 AM48 °FCool.9 mph66%29.95 "HgN/A
11:00 AM46 °FCool.8 mph71%29.95 "HgN/A
10:30 AM45 °FQuite cool.8 mph81%29.95 "HgN/A
10:00 AM45 °FQuite cool.7 mph81%29.95 "HgN/A
9:30 AM41 °FQuite cool.5 mph93%29.95 "HgN/A
9:00 AM36 °FChilly.3 mph93%29.95 "HgN/A
8:30 AM34 °FChilly.5 mph100%29.95 "HgN/A
8:00 AM34 °FFog.3 mph100%29.95 "Hg2 mi
7:30 AM34 °FFog.5 mph100%29.95 "Hg3 mi
7:00 AM34 °FFog.6 mph100%29.92 "Hg3 mi
6:30 AM32 °FChilly.3 mph100%29.92 "HgN/A
6:00 AM34 °FChilly.3 mph93%29.92 "HgN/A
5:30 AM32 °FChilly.2 mph100%29.92 "Hg5 mi
5:00 AM30 °FChilly.2 mph100%29.92 "Hg4 mi
4:30 AM30 °FIce fog.1 mph93%29.92 "Hg0 mi
4:00 AM30 °FHaze.2 mph93%29.92 "Hg0 mi
3:30 AM32 °FLight fog.3 mph100%29.92 "Hg2 mi
3:00 AM34 °FChilly.1 mph93%29.89 "HgN/A
2:30 AM34 °FChilly.3 mph93%29.89 "HgN/A
2:00 AM34 °FChilly.2 mph93%29.89 "HgN/A
1:30 AM36 °FChilly.3 mph93%29.89 "HgN/A
1:00 AM34 °FChilly.3 mph93%29.86 "HgN/A
Weather by CustomWeather, © 2015

See weather overviewHow to use our weather pages